Information for Singapore Changi

back to airport list

ICAO Code:WSSS Country:Singapore
Airport Name:Singapore Changi Is Hub:No
Latitude:1.36433 Longitude:103.992
Scheduled Departures:0 Scheduled Arrivals:0
Total Past Departures:0 Total Past Arrivals:0
Pilots Based:0 Current Pilot Location:0
WSSS 202030Z VRB01KT 6000 FEW018 SCT150 BKN300 26/26 Q1008 NOSIG


Nearby Destination Airports

ICAO Airport Country GC Distance View
WMKK Kuala Lumpur Malaysia 160 NM View Airport Page


+ Show Timetable

Scheduled Departures from WSSS

Flight To Destination Days Dep. Time Aircraft Info
No Scheduled Departures!


Scheduled Arrivals to WSSS

Flight From Origin Days Arr. Time Aircraft Info
No Scheduled Arrivals!
+ Show Recent Flight Info

Recent Departures from WSSS

Flight To Destination Pilot Flighttime Landingrate Aircraft View
No Recent Departure PIREPS!


Recent Arrivals to WSSS

Flight From Origin Pilot Flighttime Landingrate Aircraft View
No Recent Arrival PIREPS!
+ Show Pilot Information

Pilots based at WSSS

Avatar Pilot ID Name Location Rank View Profile
No Pilots are based at this airport!


Pilots currently at WSSS

Avatar Pilot ID Name Location Rank On Location since View Profile
Currently there are no pilots at this airport!
- Hide Map